TimeAKDT,TemperatureF,Dew PointF,Humidity,Sea Level PressureIn,VisibilityMPH,Wind Direction,Wind SpeedMPH,Gust SpeedMPH,PrecipitationIn,Events,Conditions,WindDirDegrees,DateUTC
12:16 AM,35.6,30.2,81,29.66,10.0,Calm,Calm,-,N/A,,Overcast,0,2012-11-03 08:16:00
12:36 AM,35.6,30.2,81,29.66,10.0,SSE,5.8,-,N/A,,Overcast,160,2012-11-03 08:36:00
12:56 AM,37.4,33.8,87,29.66,10.0,East,5.8,-,N/A,,Overcast,80,2012-11-03 08:56:00
1:16 AM,37.4,35.6,93,29.65,10.0,Calm,Calm,-,N/A,,Overcast,0,2012-11-03 09:16:00
1:36 AM,39.2,37.4,93,29.65,10.0,ESE,8.1,-,N/A,,Mostly Cloudy,120,2012-11-03 09:36:00
1:56 AM,39.2,37.4,93,29.65,10.0,SSE,6.9,-,N/A,,Scattered Clouds,150,2012-11-03 09:56:00
2:16 AM,39.2,37.4,93,29.65,10.0,ESE,9.2,-,N/A,,Mostly Cloudy,120,2012-11-03 10:16:00
2:36 AM,41.0,37.4,87,29.63,10.0,East,16.1,-,N/A,,Mostly Cloudy,100,2012-11-03 10:36:00
2:56 AM,42.8,37.4,81,29.64,10.0,East,11.5,-,N/A,,Mostly Cloudy,90,2012-11-03 10:56:00
3:16 AM,41.0,37.4,87,29.65,10.0,ESE,8.1,-,N/A,,Mostly Cloudy,110,2012-11-03 11:16:00
3:36 AM,42.8,37.4,81,29.64,10.0,East,9.2,-,N/A,,Overcast,100,2012-11-03 11:36:00
3:56 AM,42.8,37.4,81,29.64,10.0,East,9.2,-,N/A,,Overcast,100,2012-11-03 11:56:00
4:16 AM,41.0,37.4,87,29.63,10.0,East,10.4,-,N/A,,Overcast,90,2012-11-03 12:16:00
4:36 AM,42.8,37.4,81,29.63,10.0,East,9.2,-,N/A,,Mostly Cloudy,100,2012-11-03 12:36:00
4:56 AM,41.0,35.6,81,29.62,10.0,SE,6.9,-,N/A,,Overcast,130,2012-11-03 12:56:00
5:16 AM,41.0,37.4,87,29.62,10.0,East,9.2,-,N/A,,Mostly Cloudy,100,2012-11-03 13:16:00
5:36 AM,41.0,37.4,87,29.62,10.0,ESE,8.1,-,N/A,,Overcast,110,2012-11-03 13:36:00
5:56 AM,42.8,37.4,81,29.61,10.0,SE,6.9,-,N/A,,Overcast,130,2012-11-03 13:56:00
6:16 AM,41.0,35.6,81,29.61,10.0,East,8.1,-,N/A,,Overcast,100,2012-11-03 14:16:00
6:36 AM,42.8,35.6,76,29.60,10.0,East,9.2,-,N/A,,Overcast,100,2012-11-03 14:36:00
6:56 AM,42.8,35.6,76,29.59,10.0,SE,10.4,17.3,N/A,,Overcast,140,2012-11-03 14:56:00
7:16 AM,42.8,37.4,81,29.59,10.0,East,10.4,-,N/A,,Mostly Cloudy,90,2012-11-03 15:16:00
7:36 AM,42.8,37.4,81,29.59,10.0,East,10.4,-,N/A,,Mostly Cloudy,90,2012-11-03 15:36:00
7:56 AM,42.8,37.4,81,29.59,10.0,East,10.4,-,N/A,,Overcast,100,2012-11-03 15:56:00
8:16 AM,44.6,35.6,71,29.59,10.0,SE,18.4,26.5,N/A,,Overcast,130,2012-11-03 16:16:00
8:36 AM,44.6,35.6,71,29.59,10.0,SE,18.4,21.9,N/A,,Overcast,140,2012-11-03 16:36:00
8:56 AM,42.8,35.6,76,29.59,10.0,SE,13.8,23.0,N/A,,Overcast,140,2012-11-03 16:56:00
9:16 AM,42.8,35.6,76,29.60,10.0,SE,20.7,26.5,N/A,,Overcast,130,2012-11-03 17:16:00
9:36 AM,42.8,35.6,76,29.61,7.0,SE,13.8,18.4,N/A,,Overcast,140,2012-11-03 17:36:00
9:56 AM,42.8,35.6,76,29.62,7.0,SSE,12.7,-,N/A,,Overcast,150,2012-11-03 17:56:00
10:16 AM,42.8,35.6,76,29.62,7.0,SSE,9.2,-,N/A,,Overcast,150,2012-11-03 18:16:00
10:36 AM,42.8,35.6,76,29.63,7.0,SE,11.5,-,N/A,,Overcast,140,2012-11-03 18:36:00
10:56 AM,42.8,35.6,76,29.64,7.0,West,4.6,-,N/A,,Overcast,280,2012-11-03 18:56:00
11:16 AM,41.0,35.6,81,29.64,7.0,Calm,Calm,-,N/A,,Overcast,0,2012-11-03 19:16:00
11:36 AM,42.8,37.4,81,29.64,7.0,SE,6.9,-,N/A,,Overcast,140,2012-11-03 19:36:00
11:56 AM,44.6,35.6,71,29.64,10.0,SE,12.7,-,N/A,,Overcast,140,2012-11-03 19:56:00
12:16 PM,44.6,37.4,76,29.64,10.0,SSE,10.4,-,N/A,,Overcast,150,2012-11-03 20:16:00
12:36 PM,44.6,35.6,71,29.64,10.0,SSE,11.5,-,N/A,,Overcast,150,2012-11-03 20:36:00
12:56 PM,44.6,37.4,76,29.65,10.0,SSE,9.2,-,N/A,,Overcast,150,2012-11-03 20:56:00
1:16 PM,44.6,35.6,71,29.65,10.0,SSE,10.4,-,N/A,,Overcast,150,2012-11-03 21:16:00
1:36 PM,42.8,37.4,81,29.67,10.0,SSW,5.8,-,N/A,,Overcast,210,2012-11-03 21:36:00
1:56 PM,42.8,37.4,81,29.67,9.0,SSE,3.5,-,N/A,,Overcast,150,2012-11-03 21:56:00
2:16 PM,44.6,37.4,76,29.67,9.0,ESE,16.1,20.7,N/A,,Overcast,120,2012-11-03 22:16:00
2:36 PM,44.6,35.6,71,29.67,9.0,ESE,19.6,24.2,N/A,,Overcast,120,2012-11-03 22:36:00
2:56 PM,44.6,37.4,76,29.67,10.0,ESE,18.4,26.5,N/A,,Overcast,120,2012-11-03 22:56:00
3:16 PM,44.6,35.6,71,29.68,10.0,SE,18.4,25.3,N/A,,Overcast,140,2012-11-03 23:16:00
3:36 PM,44.6,35.6,71,29.68,10.0,SE,16.1,19.6,N/A,,Overcast,140,2012-11-03 23:36:00
3:56 PM,44.6,35.6,71,29.69,10.0,SE,16.1,19.6,N/A,,Overcast,140,2012-11-03 23:56:00
4:16 PM,44.6,37.4,76,29.70,10.0,ESE,11.5,-,N/A,,Overcast,120,2012-11-04 00:16:00
4:36 PM,44.6,37.4,76,29.70,10.0,SE,10.4,-,N/A,,Overcast,130,2012-11-04 00:36:00
4:56 PM,44.6,35.6,71,29.69,10.0,SE,13.8,17.3,N/A,,Mostly Cloudy,130,2012-11-04 00:56:00
5:16 PM,44.6,35.6,71,29.70,10.0,SE,16.1,20.7,N/A,,Mostly Cloudy,130,2012-11-04 01:16:00
5:36 PM,44.6,35.6,71,29.70,10.0,SE,17.3,-,N/A,,Mostly Cloudy,140,2012-11-04 01:36:00
5:56 PM,44.6,35.6,71,29.71,10.0,ESE,16.1,-,N/A,,Overcast,120,2012-11-04 01:56:00
6:16 PM,44.6,35.6,71,29.71,10.0,ESE,15.0,19.6,N/A,,Overcast,110,2012-11-04 02:16:00
6:36 PM,44.6,37.4,76,29.72,10.0,ESE,13.8,-,N/A,,Overcast,120,2012-11-04 02:36:00
6:56 PM,44.6,37.4,76,29.73,10.0,ESE,13.8,-,N/A,,Overcast,110,2012-11-04 02:56:00
7:16 PM,44.6,37.4,76,29.73,10.0,East,13.8,19.6,N/A,,Overcast,100,2012-11-04 03:16:00
7:36 PM,44.6,37.4,76,29.73,10.0,ESE,12.7,-,N/A,,Overcast,110,2012-11-04 03:36:00
7:56 PM,44.6,37.4,76,29.73,10.0,ESE,10.4,19.6,N/A,,Overcast,120,2012-11-04 03:56:00
8:16 PM,44.6,35.6,71,29.72,10.0,ESE,19.6,25.3,N/A,,Overcast,120,2012-11-04 04:16:00
8:36 PM,44.6,35.6,71,29.72,10.0,ESE,19.6,26.5,N/A,,Overcast,120,2012-11-04 04:36:00
8:56 PM,44.6,37.4,76,29.72,10.0,ESE,18.4,24.2,N/A,,Overcast,120,2012-11-04 04:56:00
9:16 PM,44.6,35.6,71,29.73,10.0,ESE,19.6,24.2,N/A,,Overcast,120,2012-11-04 05:16:00
9:36 PM,44.6,35.6,71,29.74,10.0,ESE,20.7,25.3,N/A,,Overcast,120,2012-11-04 05:36:00
9:56 PM,44.6,37.4,76,29.74,10.0,ESE,21.9,26.5,N/A,,Overcast,120,2012-11-04 05:56:00
10:16 PM,44.6,37.4,76,29.74,10.0,ESE,21.9,31.1,N/A,,Overcast,120,2012-11-04 06:16:00
10:36 PM,44.6,37.4,76,29.74,10.0,ESE,20.7,26.5,N/A,,Overcast,120,2012-11-04 06:36:00
10:56 PM,44.6,37.4,76,29.74,10.0,ESE,18.4,27.6,N/A,,Overcast,110,2012-11-04 06:56:00
11:16 PM,44.6,37.4,76,29.74,10.0,ESE,20.7,26.5,N/A,,Overcast,120,2012-11-04 07:16:00
11:36 PM,44.6,37.4,76,29.75,10.0,ESE,19.6,27.6,N/A,,Overcast,120,2012-11-04 07:36:00
11:56 PM,46.4,35.6,66,29.76,10.0,SE,19.6,26.5,N/A,,Overcast,130,2012-11-04 07:56:00